OPTUS-X (ADS-01)

Last updated on Thu Oct 30 2025 00:02:52 GMT+0000 (Coordinated Universal Time)

1 62006U 24212A 25302.63586505 -.00000269 00000+0 00000+0 0 9991 2 62006 0.0531 78.9164 0001965 71.8296 256.0267 1.00296294 3480
UTC large
Height (km)
Speed (km/s)
/
Latitude / Longitude
Inclination (degrees)
Orbital Period (minutes)
Azimuth
Elevation
Range (km)
Doppler Factor

Next 0 passes for location: London (51.5072 / 0.1276)

Sorry there are no passes over London.